Time,TemperatureF,DewpointF,PressureIn,WindDirection,WindDirectionDegrees,WindSpeedMPH,WindSpeedGustMPH,Humidity,HourlyPrecipIn,Conditions,Clouds,dailyrainin,SoftwareType,DateUTC
2013-04-15 00:03:00,56.0,-99.9,-100.00,NW,314,19.0,23.0,-999,0.23,,,0.25,,2013-04-15 05:03:00,
2013-04-15 00:10:00,54.0,-99.9,-100.00,WNW,290,6.0,7.0,-999,0.00,,,0.25,,2013-04-15 05:10:00,
2013-04-15 00:13:00,55.0,-99.9,-100.00,NW,305,10.0,17.0,-999,0.03,,,0.25,,2013-04-15 05:13:00,
2013-04-15 00:23:00,55.0,-99.9,-100.00,NW,305,10.0,17.0,-999,0.03,,,0.25,,2013-04-15 05:23:00,
2013-04-15 00:33:00,55.0,-99.9,-100.00,NW,305,10.0,17.0,-999,0.03,,,0.25,,2013-04-15 05:33:00,
2013-04-15 00:43:00,54.0,-99.9,-100.00,WNW,290,6.0,7.0,-999,0.00,,,0.25,,2013-04-15 05:43:00,
2013-04-15 00:53:00,54.0,-99.9,-100.00,WNW,290,6.0,7.0,-999,0.00,,,0.25,,2013-04-15 05:53:00,
2013-04-15 01:02:00,54.0,-99.9,-100.00,WNW,290,6.0,7.0,-999,0.00,,,0.25,,2013-04-15 06:02:00,
2013-04-15 01:40:00,52.0,-99.9,-100.00,South,172,2.0,4.0,-999,0.00,,,-99.99,,2013-04-15 06:40:00,
2013-04-15 01:43:00,54.0,-99.9,-100.00,SSE,151,7.0,9.0,-999,-99.99,,,-99.99,,2013-04-15 06:43:00,
2013-04-15 01:53:00,54.0,-99.9,-100.00,SSE,151,7.0,9.0,-999,-99.99,,,-99.99,,2013-04-15 06:53:00,
2013-04-15 02:03:00,54.0,-99.9,-100.00,SSE,151,7.0,9.0,-999,-99.99,,,-99.99,,2013-04-15 07:03:00,
2013-04-15 02:43:00,53.0,-99.9,-100.00,SW,216,3.0,4.0,-999,0.00,,,-99.99,,2013-04-15 07:43:00,
2013-04-15 02:54:00,53.0,-99.9,-100.00,SW,216,3.0,4.0,-999,0.00,,,-99.99,,2013-04-15 07:54:00,
2013-04-15 03:03:00,53.0,-99.9,-100.00,SW,216,3.0,4.0,-999,0.00,,,-99.99,,2013-04-15 08:03:00,
2013-04-15 03:14:00,53.0,-99.9,-100.00,WSW,245,3.0,3.0,-999,0.00,,,-99.99,,2013-04-15 08:14:00,
2013-04-15 03:23:00,53.0,-99.9,-100.00,WSW,245,3.0,3.0,-999,0.00,,,-99.99,,2013-04-15 08:23:00,
2013-04-15 03:35:00,53.0,-99.9,-100.00,WSW,245,3.0,3.0,-999,0.00,,,-99.99,,2013-04-15 08:35:00,
2013-04-15 03:43:00,53.0,-99.9,-100.00,West,261,4.0,6.0,-999,0.00,,,-99.99,,2013-04-15 08:43:00,
2013-04-15 03:52:00,53.0,-99.9,-100.00,West,261,4.0,6.0,-999,0.00,,,-99.99,,2013-04-15 08:52:00,
2013-04-15 04:03:00,53.0,-99.9,-100.00,West,261,4.0,6.0,-999,0.00,,,-99.99,,2013-04-15 09:03:00,
2013-04-15 04:13:00,53.0,-99.9,-100.00,WSW,240,4.0,5.0,-999,0.00,,,-99.99,,2013-04-15 09:13:00,
2013-04-15 04:23:00,53.0,-99.9,-100.00,WSW,240,4.0,5.0,-999,0.00,,,-99.99,,2013-04-15 09:23:00,
2013-04-15 04:33:00,53.0,-99.9,-100.00,WSW,240,4.0,5.0,-999,0.00,,,-99.99,,2013-04-15 09:33:00,
2013-04-15 04:43:00,53.0,-99.9,-100.00,WNW,284,3.0,4.0,-999,0.00,,,-99.99,,2013-04-15 09:43:00,
2013-04-15 04:53:00,53.0,-99.9,-100.00,WNW,284,3.0,4.0,-999,0.00,,,-99.99,,2013-04-15 09:53:00,
2013-04-15 05:03:00,53.0,-99.9,-100.00,WNW,284,3.0,4.0,-999,0.00,,,-99.99,,2013-04-15 10:03:00,
2013-04-15 05:13:00,51.0,-99.9,-100.00,West,263,2.0,2.0,-999,0.00,,,-99.99,,2013-04-15 10:13:00,
2013-04-15 05:23:00,51.0,-99.9,-100.00,West,263,2.0,2.0,-999,0.00,,,-99.99,,2013-04-15 10:23:00,
2013-04-15 05:33:00,51.0,-99.9,-100.00,West,263,2.0,2.0,-999,0.00,,,-99.99,,2013-04-15 10:33:00,
2013-04-15 05:42:00,52.0,-99.9,-100.00,South,184,2.0,2.0,-999,0.00,,,-99.99,,2013-04-15 10:42:00,
2013-04-15 05:53:00,52.0,-99.9,-100.00,South,184,2.0,2.0,-999,0.00,,,-99.99,,2013-04-15 10:53:00,
2013-04-15 06:04:00,52.0,-99.9,-100.00,South,184,2.0,2.0,-999,0.00,,,-99.99,,2013-04-15 11:04:00,
2013-04-15 06:13:00,50.0,-99.9,-100.00,WSW,240,1.0,2.0,-999,0.00,,,-99.99,,2013-04-15 11:13:00,
2013-04-15 06:23:00,50.0,-99.9,-100.00,WSW,240,1.0,2.0,-999,0.00,,,-99.99,,2013-04-15 11:23:00,
2013-04-15 06:33:00,50.0,-99.9,-100.00,WSW,240,1.0,2.0,-999,0.00,,,-99.99,,2013-04-15 11:33:00,
2013-04-15 06:44:00,49.0,-99.9,-100.00,WSW,244,2.0,3.0,-999,0.00,,,-99.99,,2013-04-15 11:44:00,
2013-04-15 06:54:00,49.0,-99.9,-100.00,WSW,244,2.0,3.0,-999,0.00,,,-99.99,,2013-04-15 11:54:00,
2013-04-15 07:05:00,49.0,-99.9,-100.00,WSW,244,2.0,3.0,-999,0.00,,,-99.99,,2013-04-15 12:05:00,
2013-04-15 07:15:00,50.0,-99.9,-100.00,South,174,3.0,4.0,-999,0.00,,,-99.99,,2013-04-15 12:15:00,
2013-04-15 07:24:00,50.0,-99.9,-100.00,South,174,3.0,4.0,-999,0.00,,,-99.99,,2013-04-15 12:24:00,
2013-04-15 07:35:00,50.0,-99.9,-100.00,South,174,3.0,4.0,-999,0.00,,,-99.99,,2013-04-15 12:35:00,
2013-04-15 07:43:00,50.0,-99.9,-100.00,WSW,238,2.0,3.0,-999,0.00,,,-99.99,,2013-04-15 12:43:00,
2013-04-15 07:54:00,50.0,-99.9,-100.00,WSW,238,2.0,3.0,-999,0.00,,,-99.99,,2013-04-15 12:54:00,
2013-04-15 08:05:00,50.0,-99.9,-100.00,WSW,238,2.0,3.0,-999,0.00,,,-99.99,,2013-04-15 13:05:00,
2013-04-15 08:13:00,51.0,-99.9,-100.00,SW,227,3.0,4.0,-999,0.00,,,-99.99,,2013-04-15 13:13:00,
2013-04-15 08:24:00,51.0,-99.9,-100.00,SW,227,3.0,4.0,-999,0.00,,,-99.99,,2013-04-15 13:24:00,
2013-04-15 08:34:00,51.0,-99.9,-100.00,SW,227,3.0,4.0,-999,0.00,,,-99.99,,2013-04-15 13:34:00,
2013-04-15 08:43:00,52.0,-99.9,-100.00,WSW,240,4.0,5.0,-999,0.00,,,-99.99,,2013-04-15 13:43:00,
2013-04-15 08:54:00,52.0,-99.9,-100.00,WSW,240,4.0,5.0,-999,0.00,,,-99.99,,2013-04-15 13:54:00,
2013-04-15 09:06:00,52.0,-99.9,-100.00,WSW,240,4.0,5.0,-999,0.00,,,-99.99,,2013-04-15 14:06:00,
2013-04-15 09:14:00,52.0,-99.9,-100.00,SW,225,4.0,4.0,-999,0.00,,,-99.99,,2013-04-15 14:14:00,
2013-04-15 09:23:00,52.0,-99.9,-100.00,SW,225,4.0,4.0,-999,0.00,,,-99.99,,2013-04-15 14:23:00,
2013-04-15 09:34:00,52.0,-99.9,-100.00,SW,225,4.0,4.0,-999,0.00,,,-99.99,,2013-04-15 14:34:00,
2013-04-15 09:45:00,54.0,-99.9,-100.00,WSW,247,2.0,3.0,-999,0.00,,,-99.99,,2013-04-15 14:45:00,
2013-04-15 09:55:00,54.0,-99.9,-100.00,WSW,247,2.0,3.0,-999,0.00,,,-99.99,,2013-04-15 14:55:00,
2013-04-15 10:04:00,54.0,-99.9,-100.00,WSW,247,2.0,3.0,-999,0.00,,,-99.99,,2013-04-15 15:04:00,
2013-04-15 10:13:00,54.0,-99.9,-100.00,South,173,2.0,3.0,-999,0.00,,,-99.99,,2013-04-15 15:13:00,
2013-04-15 10:25:00,54.0,-99.9,-100.00,South,173,2.0,3.0,-999,0.00,,,-99.99,,2013-04-15 15:25:00,
2013-04-15 10:37:00,54.0,-99.9,-100.00,South,173,2.0,3.0,-999,0.00,,,-99.99,,2013-04-15 15:37:00,
2013-04-15 10:55:00,60.0,-99.9,-100.00,SW,218,1.0,4.0,-999,0.00,,,-99.99,,2013-04-15 15:55:00,
2013-04-15 11:05:00,60.0,-99.9,-100.00,SW,218,1.0,4.0,-999,0.00,,,-99.99,,2013-04-15 16:05:00,
2013-04-15 11:14:00,64.0,-99.9,-100.00,WSW,251,8.0,12.0,-999,0.00,,,-99.99,,2013-04-15 16:14:00,
2013-04-15 11:25:00,64.0,-99.9,-100.00,WSW,251,8.0,12.0,-999,0.00,,,-99.99,,2013-04-15 16:25:00,
2013-04-15 11:34:00,64.0,-99.9,-100.00,WSW,251,8.0,12.0,-999,0.00,,,-99.99,,2013-04-15 16:34:00,
2013-04-15 11:45:00,62.0,-99.9,-100.00,West,264,7.0,12.0,-999,0.00,,,-99.99,,2013-04-15 16:45:00,
2013-04-15 11:55:00,62.0,-99.9,-100.00,West,264,7.0,12.0,-999,0.00,,,-99.99,,2013-04-15 16:55:00,
2013-04-15 12:05:00,62.0,-99.9,-100.00,West,264,7.0,12.0,-999,0.00,,,-99.99,,2013-04-15 17:05:00,
2013-04-15 12:15:00,61.0,-99.9,-100.00,WSW,250,13.0,15.0,-999,0.00,,,-99.99,,2013-04-15 17:15:00,
2013-04-15 12:22:00,61.0,-99.9,-100.00,WSW,250,13.0,15.0,-999,0.00,,,-99.99,,2013-04-15 17:22:00,
2013-04-15 12:33:00,61.0,-99.9,-100.00,WSW,250,13.0,15.0,-999,0.00,,,-99.99,,2013-04-15 17:33:00,
2013-04-15 12:44:00,62.0,-99.9,-100.00,WSW,255,9.0,14.0,-999,0.00,,,-99.99,,2013-04-15 17:44:00,
2013-04-15 12:53:00,62.0,-99.9,-100.00,WSW,255,9.0,14.0,-999,0.00,,,-99.99,,2013-04-15 17:53:00,
2013-04-15 13:04:00,62.0,-99.9,-100.00,WSW,255,9.0,14.0,-999,0.00,,,-99.99,,2013-04-15 18:04:00,
2013-04-15 13:13:00,61.0,-99.9,-100.00,WSW,258,9.0,12.0,-999,0.00,,,-99.99,,2013-04-15 18:13:00,
2013-04-15 13:24:00,61.0,-99.9,-100.00,WSW,258,9.0,12.0,-999,0.00,,,-99.99,,2013-04-15 18:24:00,
2013-04-15 13:33:00,61.0,-99.9,-100.00,WSW,258,9.0,12.0,-999,0.00,,,-99.99,,2013-04-15 18:33:00,
2013-04-15 13:42:00,59.0,-99.9,-100.00,WNW,283,13.0,17.0,-999,0.00,,,-99.99,,2013-04-15 18:42:00,
2013-04-15 13:52:00,59.0,-99.9,-100.00,WNW,283,13.0,17.0,-999,0.00,,,-99.99,,2013-04-15 18:52:00,
2013-04-15 14:02:00,59.0,-99.9,-100.00,WNW,283,13.0,17.0,-999,0.00,,,-99.99,,2013-04-15 19:02:00,
2013-04-15 14:10:00,53.0,-99.9,-100.00,WNW,293,16.0,19.0,-999,0.00,,,-99.99,,2013-04-15 19:10:00,
2013-04-15 14:12:00,56.0,-99.9,-100.00,WNW,296,13.0,17.0,-999,0.00,,,-99.99,,2013-04-15 19:12:00,
2013-04-15 14:22:00,56.0,-99.9,-100.00,WNW,296,13.0,17.0,-999,0.00,,,-99.99,,2013-04-15 19:22:00,
2013-04-15 14:39:00,56.0,-99.9,-100.00,WNW,296,13.0,17.0,-999,0.00,,,-99.99,,2013-04-15 19:39:00,
2013-04-15 14:59:00,53.0,-99.9,-100.00,WNW,293,16.0,19.0,-999,0.00,,,-99.99,,2013-04-15 19:59:00,
2013-04-15 15:02:00,53.0,-99.9,-100.00,WNW,293,16.0,19.0,-999,0.00,,,-99.99,,2013-04-15 20:02:00,
2013-04-15 15:42:00,51.0,-99.9,-100.00,NW,307,10.0,12.0,-999,0.00,,,-99.99,,2013-04-15 20:42:00,
2013-04-15 15:52:00,51.0,-99.9,-100.00,NW,307,10.0,12.0,-999,0.00,,,-99.99,,2013-04-15 20:52:00,
2013-04-15 16:02:00,51.0,-99.9,-100.00,NW,307,10.0,12.0,-999,0.00,,,-99.99,,2013-04-15 21:02:00,
2013-04-15 16:12:00,51.0,-99.9,-100.00,NW,321,9.0,10.0,-999,0.00,,,-99.99,,2013-04-15 21:12:00,
2013-04-15 16:22:00,51.0,-99.9,-100.00,NW,321,9.0,10.0,-999,0.00,,,-99.99,,2013-04-15 21:22:00,
2013-04-15 16:33:00,51.0,-99.9,-100.00,NW,321,9.0,10.0,-999,0.00,,,-99.99,,2013-04-15 21:33:00,
2013-04-15 16:43:00,51.0,-99.9,-100.00,NNW,331,8.0,12.0,-999,0.00,,,-99.99,,2013-04-15 21:43:00,
2013-04-15 16:53:00,51.0,-99.9,-100.00,NNW,331,8.0,12.0,-999,0.00,,,-99.99,,2013-04-15 21:53:00,
2013-04-15 17:02:00,51.0,-99.9,-100.00,NNW,331,8.0,12.0,-999,0.00,,,-99.99,,2013-04-15 22:02:00,
2013-04-15 17:13:00,49.0,-99.9,-100.00,NW,317,13.0,15.0,-999,0.00,,,-99.99,,2013-04-15 22:13:00,
2013-04-15 17:23:00,49.0,-99.9,-100.00,NW,317,13.0,15.0,-999,0.00,,,-99.99,,2013-04-15 22:23:00,
2013-04-15 17:33:00,49.0,-99.9,-100.00,NW,317,13.0,15.0,-999,0.00,,,-99.99,,2013-04-15 22:33:00,
2013-04-15 17:42:00,47.0,-99.9,-100.00,NW,316,15.0,18.0,-999,0.00,,,-99.99,,2013-04-15 22:42:00,
2013-04-15 17:52:00,47.0,-99.9,-100.00,NW,316,15.0,18.0,-999,0.00,,,-99.99,,2013-04-15 22:52:00,
2013-04-15 18:02:00,47.0,-99.9,-100.00,NW,316,15.0,18.0,-999,0.00,,,-99.99,,2013-04-15 23:02:00,
2013-04-15 18:12:00,47.0,-99.9,-100.00,NW,317,7.0,8.0,-999,0.00,,,-99.99,,2013-04-15 23:12:00,
2013-04-15 18:22:00,47.0,-99.9,-100.00,NW,317,7.0,8.0,-999,0.00,,,-99.99,,2013-04-15 23:22:00,
2013-04-15 18:32:00,47.0,-99.9,-100.00,NW,317,7.0,8.0,-999,0.00,,,-99.99,,2013-04-15 23:32:00,
2013-04-15 18:40:00,45.0,-99.9,-100.00,NNW,346,5.0,7.0,-999,0.01,,,-99.99,,2013-04-15 23:40:00,
2013-04-15 18:42:00,46.0,-99.9,-100.00,NNW,327,9.0,11.0,-999,0.00,,,-99.99,,2013-04-15 23:42:00,
2013-04-15 18:52:00,46.0,-99.9,-100.00,NNW,327,9.0,11.0,-999,0.00,,,-99.99,,2013-04-15 23:52:00,
2013-04-15 19:03:00,46.0,-99.9,-100.00,NNW,327,9.0,11.0,-999,0.00,,,-99.99,,2013-04-16 00:03:00,
2013-04-15 19:12:00,45.0,-99.9,-100.00,NNW,346,5.0,7.0,-999,0.01,,,-99.99,,2013-04-16 00:12:00,
2013-04-15 19:22:00,45.0,-99.9,-100.00,NNW,346,5.0,7.0,-999,0.01,,,-99.99,,2013-04-16 00:22:00,
2013-04-15 19:32:00,45.0,-99.9,-100.00,NNW,346,5.0,7.0,-999,0.01,,,-99.99,,2013-04-16 00:32:00,
2013-04-15 20:12:00,44.0,-99.9,-100.00,NNW,333,10.0,13.0,-999,0.00,,,-99.99,,2013-04-16 01:12:00,
2013-04-15 20:22:00,44.0,-99.9,-100.00,NNW,333,10.0,13.0,-999,0.00,,,-99.99,,2013-04-16 01:22:00,
2013-04-15 20:32:00,44.0,-99.9,-100.00,NNW,333,10.0,13.0,-999,0.00,,,-99.99,,2013-04-16 01:32:00,
2013-04-15 20:42:00,43.0,-99.9,-100.00,NNW,340,4.0,6.0,-999,0.00,,,-99.99,,2013-04-16 01:42:00,
2013-04-15 20:52:00,43.0,-99.9,-100.00,NNW,340,4.0,6.0,-999,0.00,,,-99.99,,2013-04-16 01:52:00,
2013-04-15 21:02:00,43.0,-99.9,-100.00,NNW,340,4.0,6.0,-999,0.00,,,-99.99,,2013-04-16 02:02:00,
2013-04-15 21:12:00,43.0,-99.9,-100.00,NNW,329,8.0,10.0,-999,0.00,,,-99.99,,2013-04-16 02:12:00,
2013-04-15 21:22:00,43.0,-99.9,-100.00,NNW,329,8.0,10.0,-999,0.00,,,-99.99,,2013-04-16 02:22:00,
2013-04-15 21:32:00,43.0,-99.9,-100.00,NNW,329,8.0,10.0,-999,0.00,,,-99.99,,2013-04-16 02:32:00,
2013-04-15 21:42:00,43.0,-99.9,-100.00,NW,318,6.0,8.0,-999,0.00,,,-99.99,,2013-04-16 02:42:00,
2013-04-15 21:52:00,43.0,-99.9,-100.00,NW,318,6.0,8.0,-999,0.00,,,-99.99,,2013-04-16 02:52:00,
2013-04-15 22:02:00,43.0,-99.9,-100.00,NW,318,6.0,8.0,-999,0.00,,,-99.99,,2013-04-16 03:02:00,
2013-04-15 22:12:00,42.0,-99.9,-100.00,NNW,327,7.0,10.0,-999,0.00,,,-99.99,,2013-04-16 03:12:00,
2013-04-15 22:22:00,42.0,-99.9,-100.00,NNW,327,7.0,10.0,-999,0.00,,,-99.99,,2013-04-16 03:22:00,
2013-04-15 22:33:00,42.0,-99.9,-100.00,NNW,327,7.0,10.0,-999,0.00,,,-99.99,,2013-04-16 03:33:00,
2013-04-15 22:43:00,42.0,-99.9,-100.00,NW,315,5.0,7.0,-999,0.00,,,-99.99,,2013-04-16 03:43:00,
2013-04-15 22:53:00,42.0,-99.9,-100.00,NW,315,5.0,7.0,-999,0.00,,,-99.99,,2013-04-16 03:53:00,
2013-04-15 23:03:00,42.0,-99.9,-100.00,NW,315,5.0,7.0,-999,0.00,,,-99.99,,2013-04-16 04:03:00,
2013-04-15 23:13:00,42.0,-99.9,-100.00,NW,322,8.0,11.0,-999,0.00,,,-99.99,,2013-04-16 04:13:00,
2013-04-15 23:23:00,42.0,-99.9,-100.00,NW,322,8.0,11.0,-999,0.00,,,-99.99,,2013-04-16 04:23:00,
2013-04-15 23:33:00,42.0,-99.9,-100.00,NW,322,8.0,11.0,-999,0.00,,,-99.99,,2013-04-16 04:33:00,
2013-04-15 23:42:00,42.0,-99.9,-100.00,NNW,341,6.0,10.0,-999,0.00,,,-99.99,,2013-04-16 04:42:00,
2013-04-15 23:53:00,42.0,-99.9,-100.00,NNW,341,6.0,10.0,-999,0.00,,,-99.99,,2013-04-16 04:53:00,